Regional Weather Roundup
Issued by NWS

Home | Current Version | Previous Version | Text Only | Print | Product List | Glossary On
Versions: 1 2 3 4 5 6 7 8 9 10 11 12 13 14 15 16 17 18 19 20 21 22 23 24 25 26 27 28 29 30 31 32 33 34 35 36 37 38 39 40 41 42 43 44 45 46 47 48 49 50
000
ASCA42 TJSJ 222110
RWRPR
PUERTO RICO/U.S. VIRGIN ISLANDS HOURLY WEATHER ROUNDUP
NATIONAL WEATHER SERVICE SAN JUAN PR
500 PM AST WED FEB 22 2017

PRZ001>002-007>008-010-222200-
PUERTO RICO

CITY           SKY/WX    TMP DP  RH WIND       PRES   REMARKS
SAN JUAN LMM   PTSUNNY   81  66  61 NE9       29.85R
AGUADILLA      PTSUNNY   77  66  69 E13       29.85S
CEIBA          SUNNY     82  66  57 NE10      29.87R
$$

VIZ001>002-222200-
U.S. VIRGIN ISLANDS

CITY           SKY/WX    TMP DP  RH WIND       PRES   REMARKS
CHARLOTTE AMA  MOSUNNY   79  70  73 VRB5      29.83S
CHRISTIANSTED  PTSUNNY   79  66  65 NE5       29.84F
$$

HOURLY WEATHER ROUNDUP FOR THE NEWS MEDIA

CITY           SKY/WX    TMP DP  RH WIND       PRES   REMARKS
ORLANDO        LGT RAIN  66  64  93 E14       29.69F
NEW YORK       PTSUNNY   50  43  77 S5        29.93F
NEWARK         PTSUNNY   57  39  51 VRB3      29.90F
CHICAGO        MOSUNNY   67  53  61 S17       29.65F
HARTFORD       MOSUNNY   58  38  47 SW5       29.88F
BOSTON         MOSUNNY   47  38  71 E8        29.89S
DALLAS         MOSUNNY   83  41  22 S13G22    29.76F
PHILADELPHIA   PTSUNNY   58  42  55 SW6       29.92S
LOS ANGELES    MOSUNNY   60  51  72 W16       30.08F
WASHINGTON DC  CLOUDY    64  47  53 S7        29.90F


USA.gov is the U.S. government's official web portal to all federal, state and local government web resources and services.